FW8197 Weather Reports


Display with metric or nautical units.
time (UTC)temp
F
wind
direction
speed
MPH
gust
MPH
rain 1hr
in
rain 24hr
in
rain mn
in
humidity
%
barometer
mb
20260506041609 40 0 0.0 1.0 0.00 0.00 0.00 85 1016.3
20260506034603 41 69 1.0 2.0 0.00 0.00 0.00 84 1016.3
20260506033059 41 89 0.0 3.0 0.00 0.00 0.00 84 1016.5
20260506031600 42 37 2.0 5.0 0.00 0.00 0.00 83 1016.6
20260506024608 42 0 0.0 1.0 0.00 0.00 0.00 84 1016.8
20260506023057 43 62 1.0 3.0 0.00 0.00 0.00 83 1016.7
20260506021557 43 86 1.0 5.0 0.00 0.00 0.00 82 1016.8
20260506020122 43 63 2.0 3.0 0.00 0.00 0.00 82 1016.8
20260506014558 44 83 1.0 4.0 0.00 0.00 0.00 81 1016.8
20260506013059 44 82 0.0 5.0 0.00 0.00 0.00 79 1017.0
20260506011601 45 110 3.0 8.0 0.00 0.00 0.00 79 1017.1
20260506010058 45 63 4.0 11.0 0.00 0.00 0.00 79 1017.1
20260506004557 46 47 3.0 8.0 0.00 0.00 0.00 81 1017.2
20260506003056 46 83 5.0 11.0 0.00 0.00 0.00 81 1017.2
20260506001607 47 34 2.0 9.0 0.00 0.00 0.00 83 1017.0
20260506000123 47 24 4.0 7.0 0.00 0.00 0.00 86 1017.0
20260505234616 47 0 1.0 3.0 0.00 0.00 0.00 89 1017.0
20260505233059 47 0 0.0 0.0 0.00 0.00 0.00 89 1017.0
20260505231600 47 0 0.0 0.0 0.00 0.00 0.00 88 1017.1
20260505230057 47 0 0.0 0.0 0.00 0.00 0.00 88 1017.2
20260505224558 48 0 0.0 0.0 0.00 0.00 0.00 87 1017.1
20260505223104 48 0 0.0 0.0 0.00 0.00 0.00 86 1017.2
20260505221603 48 0 0.0 0.0 0.00 0.00 0.00 85 1017.3
20260505220108 49 0 0.0 0.0 0.00 0.00 0.00 84 1017.3
20260505214605 49 0 0.0 0.0 0.00 0.00 0.00 84 1017.3
20260505213100 49 0 0.0 0.0 0.00 0.00 0.00 84 1017.3
20260505211641 49 0 0.0 0.0 0.00 0.00 0.00 84 1017.3
20260505210057 49 0 0.0 0.0 0.00 0.00 0.00 83 1017.3
20260505204610 50 0 0.0 1.0 0.00 0.00 0.00 82 1017.4
20260505203100 50 0 0.0 1.0 0.00 0.00 0.00 79 1017.3
20260505201556 51 0 0.0 1.0 0.00 0.00 0.00 79 1017.3
20260505200058 51 58 0.0 2.0 0.00 0.00 0.00 78 1017.3
20260505194557 51 0 1.0 2.0 0.00 0.00 0.00 78 1017.3
20260505193055 51 21 1.0 3.0 0.00 0.00 0.00 78 1017.2
20260505191604 52 36 1.0 4.0 0.00 0.00 0.00 78 1017.1
20260505190113 52 35 2.0 4.0 0.00 0.00 0.00 78 1017.0
20260505184557 52 35 1.0 4.0 0.00 0.00 0.00 78 1017.1
20260505183058 52 7 2.0 6.0 0.00 0.00 0.00 77 1017.1
20260505181640 53 59 1.0 3.0 0.00 0.00 0.00 76 1017.1
20260505180107 54 75 1.0 3.0 0.00 0.00 0.00 74 1017.1
20260505174558 55 82 1.0 5.0 0.00 0.00 0.00 71 1017.1
20260505173058 55 65 2.0 5.0 0.00 0.00 0.00 71 1017.1
20260505171603 55 53 4.0 7.0 0.00 0.00 0.00 72 1017.1
20260505170057 55 51 3.0 5.0 0.00 0.00 0.00 72 1017.2
20260505164558 55 66 3.0 6.0 0.00 0.00 0.00 73 1017.2
20260505163054 54 67 2.0 6.0 0.00 0.00 0.00 72 1017.3
20260505161600 54 51 3.0 6.0 0.00 0.00 0.00 73 1017.2
20260505153105 56 113 0.0 4.0 0.00 0.00 0.00 68 1017.3
20260505151603 55 0 0.0 2.0 0.00 0.00 0.00 69 1017.3
20260505140109 53 45 4.0 8.0 0.00 0.00 0.00 72 1017.6
20260505124558 53 314 0.0 2.0 0.00 0.00 0.00 76 1017.6
20260505123101 51 53 3.0 11.0 0.00 0.00 0.00 80 1017.7
20260505121600 52 67 5.0 11.0 0.00 0.00 0.00 78 1017.6
20260505120121 55 260 2.0 6.0 0.00 0.00 0.00 72 1017.6
20260505114558 57 270 2.0 6.0 0.00 0.00 0.00 68 1017.7
20260505113055 54 27 0.0 5.0 0.00 0.00 0.00 74 1017.8
20260505111556 54 4 4.0 7.0 0.00 0.00 0.00 73 1017.9
20260505110112 53 38 3.0 8.0 0.00 0.00 0.00 73 1017.9
20260505101602 51 84 5.0 8.0 0.00 0.00 0.00 77 1018.1
20260505100057 50 356 3.0 7.0 0.00 0.00 0.00 83 1018.0
20260505094556 50 354 2.0 5.0 0.00 0.00 0.00 84 1018.1
20260505093058 50 318 1.0 6.0 0.00 0.00 0.00 83 1018.0
20260505091559 50 1 1.0 5.0 0.00 0.00 0.00 82 1017.9
20260505090059 50 298 2.0 5.0 0.00 0.00 0.00 83 1018.0
20260505084604 50 351 2.0 5.0 0.00 0.00 0.00 84 1017.9
20260505083110 50 338 2.0 6.0 0.00 0.00 0.00 85 1018.0
20260505081554 49 276 2.0 6.0 0.00 0.00 0.00 86 1018.2
20260505080100 48 0 1.0 4.0 0.00 0.00 0.00 87 1018.3
20260505074558 48 335 2.0 4.0 0.00 0.00 0.00 88 1018.4
20260505073101 47 18 2.0 6.0 0.00 0.00 0.00 89 1018.2
20260505071558 47 313 2.0 4.0 0.00 0.00 0.00 89 1018.4
20260505070100 47 344 1.0 3.0 0.00 0.00 0.00 90 1018.3
20260505064644 47 0 1.0 6.0 0.00 0.00 0.00 90 1018.4
20260505063104 46 285 0.0 4.0 0.00 0.00 0.00 90 1018.4
20260505061555 46 316 1.0 3.0 0.00 0.00 0.00 91 1018.2
20260505060103 46 0 0.0 2.0 0.00 0.00 0.00 90 1018.3
20260505054558 46 335 0.0 2.0 0.00 0.00 0.00 90 1018.3
20260505053059 45 0 0.0 3.0 0.00 0.00 0.00 90 1018.1
20260505051555 45 0 0.0 2.0 0.00 0.00 0.00 89 1018.2
20260505050110 45 340 0.0 3.0 0.00 0.00 0.00 89 1018.2